DW0112 Weather Reports


time (UTC)temp
F
wind
direction
speed
knots
gust
knots
rain 1hr
in
rain 24hr
in
rain mn
in
humidity
%
barometer
mb
20260505121705 59 235 3.5 6.1 0.00 0.00 0.00 74 1022.0
20260505115705 59 269 3.5 6.1 0.00 0.00 0.00 74 1022.1
20260505111705 60 260 4.3 7.0 0.00 0.00 0.00 71 1022.0
20260505110706 60 254 1.7 7.0 0.00 0.00 0.00 72 1022.0
20260505102207 60 243 2.6 5.2 0.00 0.00 0.00 74 1021.9
20260505101206 60 229 1.7 5.2 0.00 0.00 0.00 75 1022.0
20260505095705 60 277 2.6 4.3 0.00 0.00 0.00 75 1022.0
20260505094706 60 282 1.7 2.6 0.00 0.00 0.00 75 1022.0
20260505092706 60 261 0.9 4.3 0.00 0.00 0.00 75 1022.0
20260505091206 60 281 1.7 7.0 0.00 0.00 0.00 75 1022.0
20260505084705 60 262 0.9 2.6 0.00 0.00 0.00 75 1021.8
20260505082705 60 275 1.7 5.2 0.00 0.00 0.00 75 1021.6
20260505082205 60 297 0.9 2.6 0.00 0.00 0.00 75 1021.6
20260505081705 60 279 1.7 4.3 0.00 0.00 0.00 75 1021.5
20260505075205 60 287 1.7 5.2 0.00 0.00 0.00 75 1021.3
20260505074706 60 267 0.9 5.2 0.00 0.00 0.00 74 1021.3
20260505074205 60 281 2.6 7.0 0.00 0.00 0.00 76 1021.2
20260505073706 60 282 1.7 2.6 0.00 0.00 0.00 74 1021.2
20260505073206 60 267 1.7 4.3 0.00 0.00 0.00 74 1021.1
20260505072205 60 274 2.6 5.2 0.00 0.00 0.00 74 1021.1
20260505071206 60 263 1.7 2.6 0.00 0.00 0.00 74 1020.9
20260505065705 60 250 1.7 5.2 0.00 0.00 0.00 73 1020.9
20260505064705 61 274 1.7 7.0 0.00 0.00 0.00 73 1020.9
20260505063705 61 264 2.6 5.2 0.00 0.00 0.00 72 1020.8
20260505063205 61 268 2.6 5.2 0.00 0.00 0.00 72 1020.8
20260505062705 61 279 1.7 5.2 0.00 0.00 0.00 72 1020.8
20260505062205 61 286 2.6 7.0 0.00 0.00 0.00 72 1020.8
20260505060705 61 265 3.5 5.2 0.00 0.00 0.00 70 1020.7
20260505055705 61 247 2.6 7.0 0.00 0.00 0.00 69 1020.6
20260505053205 62 276 2.6 7.0 0.00 0.00 0.00 67 1020.3
20260505052705 62 260 2.6 7.0 0.00 0.00 0.00 67 1020.2
20260505052205 62 298 2.6 5.2 0.00 0.00 0.00 67 1020.2
20260505051205 62 244 2.6 4.3 0.00 0.00 0.00 67 1020.1
20260505050705 62 311 2.6 6.1 0.00 0.00 0.00 68 1020.2
20260505041205 62 260 2.6 7.8 0.00 0.00 0.00 66 1019.7
20260505040706 62 255 4.3 7.0 0.00 0.00 0.00 66 1019.7
20260505034205 62 228 2.6 7.8 0.00 0.00 0.00 67 1019.5
20260505032705 62 249 3.5 7.0 0.00 0.00 0.00 67 1019.5
20260505032205 62 247 4.3 7.8 0.00 0.00 0.00 68 1019.5
20260505030705 62 254 4.3 8.7 0.00 0.00 0.00 68 1019.6
20260505030205 62 246 4.3 10.4 0.00 0.00 0.00 68 1019.6
20260505025706 62 258 5.2 8.7 0.00 0.00 0.00 68 1019.7
20260505024705 63 248 5.2 10.4 0.00 0.00 0.00 67 1019.7
20260505024205 64 230 4.3 8.7 0.00 0.00 0.00 66 1019.7
20260505023205 63 283 3.5 7.8 0.00 0.00 0.00 67 1019.6
20260505022704 63 254 2.6 5.2 0.00 0.00 0.00 69 1019.6
20260505022205 62 234 4.3 7.0 0.00 0.00 0.00 68 1019.7
20260505021705 62 263 4.3 10.4 0.00 0.00 0.00 68 1019.7
20260505020704 62 256 4.3 7.8 0.00 0.00 0.00 69 1019.8
20260505020206 62 273 4.3 7.0 0.00 0.00 0.00 69 1019.8
20260505015705 62 258 3.5 7.8 0.00 0.00 0.00 70 1019.8
20260505014205 62 241 4.3 8.7 0.00 0.00 0.00 68 1019.9
20260505012705 61 228 4.3 10.4 0.00 0.00 0.00 70 1019.9
20260505011705 61 257 4.3 10.4 0.00 0.00 0.00 70 1019.9
20260505010204 61 244 6.1 13.0 0.00 0.00 0.00 71 1019.9
20260505005704 61 247 5.2 12.2 0.00 0.00 0.00 71 1019.8
20260505005205 61 242 5.2 8.7 0.00 0.00 0.00 72 1019.8
20260505004706 60 256 5.2 10.4 0.00 0.00 0.00 73 1019.7
20260505003705 60 269 5.2 10.4 0.00 0.00 0.00 74 1019.7
20260505003205 60 234 5.2 8.7 0.00 0.00 0.00 74 1019.6
20260505002705 60 253 5.2 10.4 0.00 0.00 0.00 74 1019.6
20260505002205 61 253 5.2 10.4 0.00 0.00 0.00 74 1019.5
20260504234705 60 270 6.1 12.2 0.00 0.00 0.00 76 1019.1
20260504234205 59 252 5.2 11.3 0.00 0.00 0.00 77 1019.1
20260504232204 59 257 6.1 10.4 0.00 0.00 0.00 78 1019.0
20260504231704 59 272 4.3 10.4 0.00 0.00 0.00 78 1018.9
20260504231205 59 268 5.2 10.4 0.00 0.00 0.00 78 1018.8
20260504230205 59 278 4.3 11.3 0.00 0.00 0.00 80 1018.7
20260504224205 58 266 5.2 10.4 0.00 0.00 0.00 81 1018.6
20260504223706 58 254 6.1 11.3 0.00 0.00 0.00 81 1018.5
20260504221705 57 268 6.1 12.2 0.00 0.00 0.00 82 1018.0
20260504221205 57 241 4.3 10.4 0.00 0.00 0.00 83 1017.9
20260504220205 57 242 6.1 13.0 0.00 0.00 0.00 83 1017.7
20260504215706 57 255 5.2 10.4 0.00 0.00 0.00 83 1017.6
20260504214705 57 299 3.5 13.0 0.00 0.00 0.00 84 1017.4
20260504214204 57 283 5.2 10.4 0.00 0.00 0.00 84 1017.4
20260504212705 57 252 5.2 11.3 0.00 0.00 0.00 84 1017.1
20260504212206 57 278 4.3 10.4 0.00 0.00 0.00 84 1017.0
20260504211204 57 274 4.3 11.3 0.00 0.00 0.00 84 1016.8
20260504210705 57 273 5.2 10.4 0.00 0.00 0.00 84 1016.7
20260504205706 57 266 4.3 10.4 0.00 0.00 0.00 84 1016.5
20260504205205 57 241 5.2 10.4 0.00 0.00 0.00 84 1016.5
20260504204705 57 266 5.2 13.0 0.00 0.00 0.00 85 1016.5
20260504203704 57 276 5.2 13.0 0.00 0.00 0.00 85 1016.3
20260504203205 57 270 5.2 11.3 0.00 0.00 0.00 85 1016.2
20260504202204 57 285 4.3 12.2 0.00 0.00 0.00 85 1016.0
20260504201205 57 266 6.1 11.3 0.00 0.00 0.00 84 1015.8
20260504200705 57 250 5.2 11.3 0.00 0.00 0.00 84 1015.8
20260504200204 57 268 7.0 13.0 0.00 0.00 0.00 84 1015.8
20260504195204 57 263 5.2 10.4 0.00 0.00 0.00 84 1015.7
20260504194705 58 273 6.1 10.4 0.00 0.00 0.00 84 1015.6
20260504194205 58 287 4.3 12.2 0.00 0.00 0.00 84 1015.5
20260504193204 58 276 5.2 10.4 0.00 0.00 0.00 84 1015.4
20260504192205 57 291 6.1 12.2 0.00 0.00 0.00 83 1015.3
20260504191705 57 274 5.2 13.0 0.00 0.00 0.00 83 1015.2
20260504191204 58 258 6.1 13.0 0.00 0.00 0.00 83 1015.2
20260504190705 58 268 7.0 13.9 0.00 0.00 0.00 83 1015.2
20260504185704 58 274 7.0 14.8 0.00 0.00 0.00 83 1015.1
20260504185204 58 230 5.2 12.2 0.00 0.00 0.00 83 1015.0
20260504184706 58 264 5.2 13.0 0.00 0.00 0.00 83 1014.9
20260504183204 58 290 6.1 13.0 0.00 0.00 0.00 83 1014.7
20260504182204 58 285 5.2 11.3 0.00 0.00 0.00 82 1014.7
20260504181704 58 266 7.0 13.9 0.00 0.00 0.00 82 1014.5
20260504180705 58 267 7.0 12.2 0.00 0.00 0.00 82 1014.5
20260504175204 58 256 5.2 12.2 0.00 0.00 0.00 83 1014.4
20260504174204 58 267 6.1 14.8 0.00 0.00 0.00 83 1014.2
20260504173706 58 255 5.2 10.4 0.00 0.00 0.00 83 1014.2
20260504172204 58 276 5.2 12.2 0.00 0.00 0.00 82 1014.2
20260504170704 58 289 7.0 15.6 0.00 0.00 0.00 81 1014.1
20260504170204 58 271 7.0 15.6 0.00 0.00 0.00 81 1014.0
20260504160204 59 276 7.0 17.4 0.00 0.00 0.00 79 1013.6
20260504150204 59 282 6.1 17.4 0.00 0.00 0.00 79 1013.3
20260504141205 59 277 5.2 10.4 0.00 0.00 0.00 78 1012.8
20260504130206 60 271 6.1 18.2 0.00 0.00 0.00 75 1012.3